Regional Weather Roundup
Issued by NWS Sioux Falls, SD

Home | Current Version | Previous Version | Graphics & Text | Print | Product List | Glossary Off
Versions: 1 2 3 4 5 6 7 8 9 10 11 12 13 14 15 16 17 18 19 20 21 22 23 24 25 26 27 28 29 30 31 32 33 34 35 36 37 38 39 40 41 42 43 44 45 46 47 48 49 50

000
ASUS43 KFSD 270210
RWRFSD

WEATHER ROUNDUP FOR SE SOUTH DAKOTA/SW MINNESOTA/NW IOWA
NATIONAL WEATHER SERVICE SIOUX FALLS SD
800 PM CST WED NOV 26 2014

NOTE: "FAIR" INDICATES FEW OR NO CLOUDS BELOW 12,000 FEET WITH NO
SIGNIFICANT WEATHER AND OR OBSTRUCTIONS TO VISIBILITY.


SDZ038>040-050-052>070-270300-
SOUTHEAST SOUTH DAKOTA

CITY           SKY/WX    TMP DP  RH WIND       PRES   REMARKS
CHAMBERLAIN    CLOUDY    14   4  64 E6        30.41S WCI   5
HURON          CLOUDY     8   1  73 N13       30.47R WCI  -8
MADISON        CLOUDY     9   5  85 N15       30.39R WCI  -8
MITCHELL       CLOUDY    12   3  67 N12       30.46R WCI  -2
SIOUX FALLS    CLOUDY    13   4  67 N15       30.40R WCI  -3
WINNER         CLOUDY    21  12  68 E7        30.38R WCI  12
YANKTON        PTCLDY    12   7  79 NW9       30.45R WCI   0
$$

MNZ071-072-080-081-089-090-097-098-270300-
SOUTHWEST MINNESOTA

CITY           SKY/WX    TMP DP  RH WIND       PRES   REMARKS
FAIRMONT       CLOUDY    12   7  79 NW18      30.34R WCI  -5
JACKSON        CLOUDY    12   7  79 NW17      30.35R WCI  -5
LUVERNE        CLOUDY    14   5  67 N10       30.38S WCI   1
MARSHALL       CLOUDY     7  -2  66 N22       30.41R WCI -14
MONTEVIDEO     CLOUDY     5   0  78 N20G25    30.44R WCI -15
PIPESTONE      CLOUDY    10   1  67 N9G17     30.36R WCI  -2
REDWOOD FALLS  LGT SNOW   9   4  80 NW14G23   30.39R WCI  -7
TRACY          CLOUDY     9   2  75 NW20G26   30.40R WCI -11
WINDOM         CLOUDY     9   5  85 NW16      30.35S WCI  -9
WORTHINGTON    CLOUDY    10   3  72 N17       30.36R WCI  -7
$$

IAZ001>003-012>014-020>022-031-032-NEZ013-014-SDZ071-270300-
NORTHWEST IOWA

CITY           SKY/WX    TMP DP  RH WIND       PRES   REMARKS
CHEROKEE       CLOUDY    16  13  86 NW8       30.38R WCI   5
DENISON        CLOUDY    21  19  93 N10G18    30.33R WCI  10
ESTHERVILLE    CLOUDY    12   9  87 NW20      30.35R WCI  -6
LE MARS        CLEAR     14   9  79 N6        30.41R WCI   5
ORANGE CITY    PTCLDY    14   9  79 N8        30.37S WCI   3
SHELDON        CLOUDY    12   7  79 N14G20    30.36S WCI  -3
SIOUX CITY     MOCLDY    18  13  80 NW20      30.41R WCI   2
SPENCER        LGT SNOW  14  10  84 N14       30.36R FOG     WCI  -1
STORM LAKE     CLOUDY    18  14  86 NW16      30.35R WCI   3
$$

ABBREVIATIONS USED IN REMARKS
   TC - TEMPERATURE IN CELSIUS
  WCI - WIND CHILL INDEX
   HX - HEAT INDEX
  VSB - VISIBILITY




USA.gov is the U.S. government's official web portal to all federal, state and local government web resources and services.